Location: Barcelona
(41.3830°N, 2.1830°E)
Time: 23:11:38
(UTC+02:00)

ISS - Pass Details

Date: 23 May 2019
Orbit: 408 x 418 km, 51.6° (Epoch: 26 May)

Event Time Altitude Azimuth Distance (km) Brightness Sun altitude
Rises 23:25:44 0° 293° (WNW) 2,351 1.0 -19.7°
Reaches altitude 10° 23:28:33 10° 319° (NW) 1,491 0.2 -20.0°
Maximum altitude 23:30:30 15° 355° (N) 1,247 -0.6 -20.3°
Drops below altitude 10° 23:32:28 10° 31° (NNE) 1,495 -0.7 -20.5°
Sets 23:35:18 0° 57° (ENE) 2,361 0.1 -20.8°
